Location: Bovenkerk
(52.2915°N, 4.8336°E)
Time: 03:24:08
(UTC+00:00)

Cosmos 2184 Rocket - Pass Details

Date: 09 April 2020
Orbit: 958 x 1003 km, 82.9° (Epoch: 04 June)

Event Time Altitude Azimuth Distance (km) Brightness Sun altitude
Rises 18:58:24 0° 349° (NNW) 3,714 7.5 -5.1°
Reaches altitude 10° 19:00:57 10° 348° (NNW) 2,755 6.8 -5.4°
Maximum altitude 19:07:16 82° 263° (W) 994 4.2 -6.3°
Drops below altitude 10° 19:13:28 10° 176° (S) 2,706 6.1 -7.2°
Sets 19:15:57 0° 176° (S) 3,643 6.7 -7.6°
